Location: Bijele Vode
(45.2833°N, 16.2000°E)
Time: 11:20:06
(UTC+00:00)

CENTAUR R/B - Pass Details

Date: 26 January 2021
Orbit: 742 x 1446 km, 63.5° (Epoch: 02 March)

Event Time Altitude Azimuth Distance (km) Brightness Sun altitude
Rises 04:16:43 0° 197° (SSW) 3,338 5.2 -22.0°
Reaches altitude 10° 04:19:03 10° 192° (SSW) 2,479 4.6 -21.6°
Maximum altitude 04:24:34 50° 118° (ESE) 1,194 3.3 -20.6°
Drops below altitude 10° 04:31:07 10° 45° (NE) 2,936 5.5 -19.5°
Sets 04:34:06 0° 41° (NE) 4,012 6.2 -19.0°
